Date String (YYYY-MM-DD hh:mm:ss) UTC,Instrument flags,absolute air pressure of the measurement (hPa),sample flow rate (lpm),inlet stack bypass flow (lpm),air temperature of the measurement (°C),ambient temperature measured by the external sensor (°C),aerosol sample conditioner tube jacket temperature (°C),OPC LED temperature (°C),internal box temperature (°C),relative humidity of the measurement (%),span deviation,mass concentration of particles derived from Lorenz-Mie calculation of OPC scattering (μg/m³),mass concentration of particles derived from Lorenz-Mie calculation of OPC scattering (μg/m³),mass concentration of particles derived from Lorenz-Mie calculation of OPC scattering (μg/m³)
DateTimeUTC,F1_M11,P_M11,Q1_M11,Q2_M11,T1_M11,T2_M11,T3_M11,T4_M11,T5_M11,U1_M11,ZSPAN_M11,X0_M11,X2_M11,X1_M11
2023-10-27 10:00:00,SystemResetWarning,0833.1,5.01,000.00,023.5,021.8,000.0,032.2,024.9,16.1,0000.5,0008.29,0005.06,0004.67
2023-10-27 10:01:00,SystemResetWarning,0833.2,5.01,000.00,023.5,021.8,000.0,032.1,024.9,16.0,0000.7,0008.59,0005.12,0004.72
2023-10-27 10:02:00,SystemResetWarning,0833.2,5.00,000.00,023.5,021.8,000.0,032.1,024.9,15.8,0001.4,0008.56,0005.17,0004.79
2023-10-27 10:03:00,SystemResetWarning,0833.2,4.99,000.00,023.5,021.8,000.0,032.1,024.9,15.8,0002.2,0008.51,0005.19,0004.86
2023-10-27 10:04:00,SystemResetWarning,0833.2,5.00,000.00,023.4,021.8,000.0,032.1,024.9,15.7,0002.4,0008.45,0005.25,0004.92
2023-10-27 10:05:00,SystemResetWarning,0833.2,4.99,000.00,023.4,021.8,000.0,032.1,024.9,15.7,0002.1,0008.52,0005.35,0005.01
2023-10-27 10:06:00,SystemResetWarning,0833.3,5.00,000.00,023.4,021.8,000.0,032.1,024.9,15.6,0002.1,0008.55,0005.43,0005.11
2023-10-27 10:07:00,SystemResetWarning,0833.3,5.01,000.00,023.4,021.8,000.0,032.1,024.9,15.6,0002.5,0008.60,0005.50,0005.19
2023-10-27 10:08:00,SystemResetWarning,0833.3,5.00,000.00,023.4,021.8,000.0,032.0,024.8,15.5,0002.7,0008.73,0005.62,0005.30
2023-10-27 10:09:00,SystemResetWarning,0833.3,5.00,000.00,023.4,021.8,000.0,032.0,024.9,15.5,0002.2,0008.79,0005.71,0005.39
2023-10-27 10:10:00,SystemResetWarning,0833.3,5.00,000.00,023.4,021.8,000.0,032.0,024.9,15.5,0002.2,0008.80,0005.80,0005.49
2023-10-27 10:11:00,SystemResetWarning,0833.3,5.01,000.00,023.4,021.8,000.0,032.0,024.9,15.4,0001.9,0008.80,0005.89,0005.56
2023-10-27 10:12:00,SystemResetWarning,0833.3,5.00,000.00,023.4,021.9,000.0,032.0,024.9,15.4,0001.8,0008.63,0006.01,0005.63
2023-10-27 10:13:00,SystemResetWarning,0833.3,5.00,000.00,023.4,021.9,000.0,032.0,024.9,15.3,0001.2,0008.83,0006.07,0005.68
2023-10-27 10:14:00,SystemResetWarning,0833.3,5.00,000.00,023.4,021.9,000.0,032.0,024.9,15.4,0000.7,0009.04,0006.14,0005.73
2023-10-27 10:15:00,SystemResetWarning,0833.3,4.99,000.00,023.4,021.9,000.0,032.0,024.9,15.3,0000.9,0009.11,0006.21,0005.79
2023-10-27 10:16:00,SystemResetWarning,0833.4,5.00,000.00,023.4,021.9,000.0,032.0,024.9,15.3,0001.1,0009.17,0006.25,0005.84
2023-10-27 10:17:00,SystemResetWarning,0833.4,5.00,000.00,023.3,021.9,000.0,031.9,024.8,15.2,0001.2,0009.29,0006.31,0005.90
2023-10-27 10:18:00,SystemResetWarning,0833.4,5.00,000.00,023.3,021.9,000.0,031.9,024.8,15.2,0001.1,0009.39,0006.37,0005.96
2023-10-27 10:19:00,SystemResetWarning,0833.4,5.00,000.00,023.3,021.8,000.0,031.9,024.8,15.2,0000.5,0009.43,0006.44,0006.03
2023-10-27 10:20:00,SystemResetWarning,0833.4,5.01,000.00,023.3,021.8,000.0,031.9,024.8,15.2,0000.8,0009.53,0006.52,0006.10
2023-10-27 10:21:00,SystemResetWarning,0833.4,5.00,000.00,023.2,021.7,000.0,031.9,024.8,15.3,0000.2,0009.60,0006.56,0006.16
2023-10-27 10:22:00,SystemResetWarning,0833.4,5.00,000.00,023.2,021.7,000.0,031.8,024.8,15.3,0000.2,0009.71,0006.65,0006.24
2023-10-27 10:23:00,SystemResetWarning,0833.4,4.99,000.00,023.2,021.7,000.0,031.8,024.8,15.3,0000.3,0009.76,0006.70,0006.31
2023-10-27 10:24:00,SystemResetWarning,0833.5,4.99,000.00,023.2,021.7,000.0,031.8,024.8,15.3,0000.1,0009.73,0006.78,0006.38
2023-10-27 10:25:00,SystemResetWarning,0833.5,5.00,000.00,023.2,021.7,000.0,031.8,024.8,15.2,0000.6,0009.70,0006.86,0006.46
2023-10-27 10:26:00,SystemResetWarning,0833.6,5.00,000.00,023.2,021.8,000.0,031.8,024.8,15.2,0000.1,0009.70,0006.90,0006.51
2023-10-27 10:27:00,SystemResetWarning,0833.6,5.00,000.00,023.2,021.8,000.0,031.8,024.8,15.2,-000.1,0009.72,0006.96,0006.57
2023-10-27 10:28:00,SystemResetWarning,0833.5,5.00,000.00,023.2,021.7,000.0,031.8,024.8,15.2,-000.7,0009.72,0007.02,0006.62
2023-10-27 10:29:00,SystemResetWarning,0833.6,5.00,000.00,023.2,021.7,000.0,031.8,024.8,15.1,-001.4,0009.66,0007.04,0006.67
2023-10-27 10:30:00,SystemResetWarning,0833.7,5.01,000.00,023.2,021.8,000.0,031.8,024.8,15.1,-001.2,0009.69,0007.08,0006.70
2023-10-27 10:31:00,SystemResetWarning,0833.7,5.00,000.00,023.2,021.8,000.0,031.8,024.7,15.1,-001.3,0009.69,0007.08,0006.70
2023-10-27 10:32:00,SystemResetWarning,0833.6,5.00,000.00,023.2,021.7,000.0,031.8,024.7,15.2,-001.2,0009.65,0007.09,0006.71
2023-10-27 10:33:00,SystemResetWarning,0833.7,5.00,000.00,023.2,021.7,000.0,031.7,024.7,15.2,-001.1,0009.57,0007.06,0006.71
2023-10-27 10:34:00,SystemResetWarning,0833.7,5.00,000.00,023.1,021.7,000.0,031.7,024.7,15.2,-001.2,0009.19,0006.97,0006.67
2023-10-27 10:35:00,SystemResetWarning,0833.7,5.00,000.00,023.1,021.7,000.0,031.7,024.7,15.2,-001.0,0009.02,0006.91,0006.63
2023-10-27 10:36:00,SystemResetWarning,0833.7,5.00,000.00,023.1,021.7,000.0,031.7,024.7,15.2,-001.7,0009.11,0006.85,0006.59
2023-10-27 10:37:00,SystemResetWarning,0833.7,4.99,000.00,023.1,021.7,000.0,031.7,024.7,15.1,-001.9,0009.92,0006.80,0006.53
2023-10-27 10:38:00,SystemResetWarning,0833.7,4.99,000.00,023.1,021.7,000.0,031.7,024.8,15.2,-002.0,0009.91,0006.75,0006.47
2023-10-27 10:39:00,SystemResetWarning,0833.7,5.00,000.00,023.1,021.7,000.0,031.7,024.8,15.2,-001.4,0009.83,0006.68,0006.41
2023-10-27 10:40:00,SystemResetWarning,0833.7,5.01,000.00,023.1,021.8,000.0,031.7,024.8,15.2,-000.6,0009.95,0006.68,0006.36
2023-10-27 10:41:00,SystemResetWarning,0833.7,5.01,000.00,023.2,021.8,000.0,031.7,024.8,15.1,-000.6,0010.02,0006.65,0006.30
2023-10-27 10:42:00,SystemResetWarning,0833.7,5.01,000.00,023.2,021.8,000.0,031.7,024.8,15.2,-000.8,0010.00,0006.59,0006.24
2023-10-27 10:43:00,SystemResetWarning,0833.7,5.00,000.00,023.2,021.8,000.0,031.7,024.8,15.2,-000.9,0009.98,0006.55,0006.18
2023-10-27 10:44:00,SystemResetWarning,0833.7,5.00,000.00,023.2,021.8,000.0,031.7,024.8,15.2,-000.6,0010.04,0006.53,0006.13
2023-10-27 10:45:00,SystemResetWarning,0833.7,5.00,000.00,023.2,021.8,000.0,031.7,024.8,15.2,-000.8,0010.38,0006.52,0006.09
2023-10-27 10:46:00,SystemResetWarning,0833.8,5.00,000.00,023.2,021.8,000.0,031.7,024.8,15.1,-000.5,0010.99,0006.49,0006.04
2023-10-27 10:47:00,SystemResetWarning,0833.8,5.00,000.00,023.2,021.8,000.0,031.7,024.8,15.0,-000.3,0010.99,0006.48,0006.03
2023-10-27 10:48:00,SystemResetWarning,0833.7,5.00,000.00,023.2,021.8,000.0,031.7,024.8,15.0,-000.1,0010.04,0006.45,0006.01
2023-10-27 10:49:00,SystemResetWarning,0833.7,5.00,000.00,023.2,021.8,000.0,031.7,024.8,15.0,-000.1,0009.92,0006.42,0006.00
2023-10-27 10:50:00,SystemResetWarning,0833.6,5.00,000.00,023.2,021.9,000.0,031.7,024.8,15.0,0000.1,0010.01,0006.42,0005.99
2023-10-27 10:51:00,SystemResetWarning,0833.6,4.99,000.00,023.2,021.8,000.0,031.7,024.8,15.0,0000.4,0009.89,0006.38,0005.98
2023-10-27 10:52:00,SystemResetWarning,0833.7,4.99,000.00,023.2,021.8,000.0,031.7,024.9,15.0,0000.3,0009.79,0006.34,0005.97
2023-10-27 10:53:00,SystemResetWarning,0833.6,5.00,000.00,023.2,021.8,000.0,031.7,024.9,15.1,0000.1,0009.77,0006.33,0005.96
2023-10-27 10:54:00,SystemResetWarning,0833.7,5.01,000.00,023.2,021.8,000.0,031.7,024.9,15.2,0000.1,0009.82,0006.34,0005.97
2023-10-27 10:55:00,SystemResetWarning,0833.7,5.01,000.00,023.2,021.9,000.0,031.7,024.9,15.2,0000.4,0009.86,0006.36,0005.98
2023-10-27 10:56:00,SystemResetWarning,0833.7,5.00,000.00,023.2,021.8,000.0,031.7,024.9,15.2,0000.5,0009.61,0006.34,0005.99
2023-10-27 10:57:00,SystemResetWarning,0833.7,5.00,000.00,023.2,021.8,000.0,031.7,024.9,15.1,0000.0,0009.04,0006.33,0006.01
2023-10-27 10:58:00,SystemResetWarning,0833.7,5.00,000.00,023.2,021.8,000.0,031.7,024.9,15.2,-000.1,0008.96,0006.31,0006.00
2023-10-27 10:59:00,SystemResetWarning,0833.7,5.00,000.00,023.2,021.8,000.0,031.7,024.9,15.2,0000.1,0008.94,0006.30,0006.00
